| time (UTC) | temp F | wind direction | speed MPH | gust MPH | rain 1hr in | rain 24hr in | rain mn in | humidity % | barometer mb |
| 20260901204901 | 87 | 221 | 3.0 | 4.0 | 0.00 | 0.00 | 0.01 | 66 | 1014.9 |
| 20260901203502 | 88 | 290 | 4.0 | 6.0 | 0.00 | 0.00 | 0.01 | 64 | 1015.2 |
| 20260901202402 | 85 | 240 | 1.0 | 8.0 | 0.00 | 0.00 | 0.01 | 68 | 1015.2 |
| 20260901201003 | 85 | 229 | 4.0 | 7.0 | 0.00 | 0.00 | 0.01 | 69 | 1015.2 |
| 20260901195902 | 85 | 249 | 5.0 | 6.0 | 0.00 | 0.00 | 0.01 | 67 | 1015.2 |
| 20260901194502 | 84 | 286 | 3.0 | 8.0 | 0.00 | 0.00 | 0.01 | 70 | 1015.2 |
| 20260901193002 | 86 | 261 | 1.0 | 6.0 | 0.00 | 0.00 | 0.01 | 67 | 1014.9 |
| 20260901191902 | 86 | 297 | 5.0 | 6.0 | 0.00 | 0.00 | 0.01 | 66 | 1015.2 |
| 20260901190503 | 88 | 230 | 4.0 | 7.0 | 0.00 | 0.00 | 0.01 | 63 | 1015.2 |
| 20260901185501 | 90 | 265 | 3.0 | 7.0 | 0.00 | 0.00 | 0.01 | 60 | 1015.2 |
| 20260901184002 | 88 | 233 | 2.0 | 8.0 | 0.00 | 0.00 | 0.01 | 63 | 1015.2 |
| 20260901182902 | 87 | 228 | 4.0 | 8.0 | 0.00 | 0.00 | 0.01 | 64 | 1015.2 |
| 20260901181503 | 88 | 192 | 3.0 | 7.0 | 0.00 | 0.00 | 0.01 | 62 | 1015.2 |
| 20260901180003 | 87 | 147 | 6.0 | 9.0 | 0.00 | 0.00 | 0.01 | 65 | 1015.2 |
| 20260901174503 | 87 | 223 | 4.0 | 8.0 | 0.00 | 0.00 | 0.01 | 64 | 1014.9 |
| 20260901173003 | 87 | 263 | 4.0 | 6.0 | 0.00 | 0.00 | 0.01 | 66 | 1014.6 |
| 20260901171502 | 86 | 265 | 2.0 | 8.0 | 0.00 | 0.00 | 0.01 | 69 | 1014.6 |
| 20260901170002 | 86 | 242 | 4.0 | 8.0 | 0.00 | 0.00 | 0.01 | 69 | 1014.6 |
| 20260901164901 | 85 | 233 | 6.0 | 8.0 | 0.00 | 0.00 | 0.01 | 71 | 1014.6 |
| 20260901163402 | 82 | 228 | 3.0 | 4.0 | 0.00 | 0.00 | 0.01 | 76 | 1014.6 |
| 20260901162402 | 82 | 321 | 3.0 | 5.0 | 0.00 | 0.00 | 0.01 | 76 | 1014.6 |
| 20260901160902 | 83 | 358 | 2.0 | 4.0 | 0.00 | 0.00 | 0.01 | 73 | 1014.6 |
| 20260901155402 | 85 | 327 | 1.0 | 6.0 | 0.00 | 0.00 | 0.01 | 73 | 1014.6 |
| 20260901154002 | 86 | 303 | 2.0 | 5.0 | 0.00 | 0.00 | 0.01 | 70 | 1014.6 |
| 20260901152502 | 84 | 256 | 2.0 | 4.0 | 0.00 | 0.00 | 0.01 | 73 | 1014.6 |
| 20260901151402 | 83 | 8 | 4.0 | 6.0 | 0.00 | 0.00 | 0.01 | 72 | 1014.6 |
| 20260901144402 | 81 | 305 | 1.0 | 6.0 | 0.00 | 0.00 | 0.01 | 74 | 1014.2 |
| 20260901143002 | 81 | 10 | 2.0 | 5.0 | 0.00 | 0.00 | 0.01 | 77 | 1014.6 |
| 20260901141502 | 79 | 336 | 2.0 | 7.0 | 0.00 | 0.00 | 0.01 | 80 | 1014.6 |
| 20260901140002 | 79 | 276 | 4.0 | 8.0 | 0.00 | 0.00 | 0.01 | 81 | 1014.6 |
| 20260901135002 | 79 | 223 | 6.0 | 8.0 | 0.00 | 0.00 | 0.01 | 82 | 1014.6 |
| 20260901133503 | 78 | 300 | 0.0 | 4.0 | 0.00 | 0.00 | 0.01 | 85 | 1014.6 |
| 20260901132402 | 77 | 233 | 1.0 | 4.0 | 0.00 | 0.00 | 0.01 | 85 | 1014.9 |
| 20260901131002 | 77 | 250 | 3.0 | 7.0 | 0.00 | 0.00 | 0.01 | 85 | 1014.9 |
| 20260901125501 | 76 | 33 | 3.0 | 6.0 | 0.00 | 0.00 | 0.01 | 88 | 1014.9 |
| 20260901124004 | 75 | 324 | 0.0 | 6.0 | 0.00 | 0.00 | 0.01 | 90 | 1014.9 |
| 20260901123002 | 75 | 15 | 2.0 | 7.0 | 0.00 | 0.00 | 0.01 | 91 | 1014.6 |
| 20260901121503 | 74 | 328 | 0.0 | 4.0 | 0.00 | 0.00 | 0.01 | 91 | 1014.6 |
| 20260901120003 | 74 | 294 | 2.0 | 4.0 | 0.00 | 0.00 | 0.01 | 91 | 1014.6 |
| 20260901114502 | 74 | 342 | 2.0 | 5.0 | 0.00 | 0.00 | 0.01 | 91 | 1014.6 |
| 20260901113003 | 74 | 195 | 2.0 | 5.0 | 0.00 | 0.00 | 0.01 | 91 | 1014.6 |
| 20260901111502 | 74 | 266 | 0.0 | 5.0 | 0.00 | 0.00 | 0.01 | 90 | 1014.2 |
| 20260901110002 | 74 | 311 | 0.0 | 5.0 | 0.00 | 0.00 | 0.01 | 89 | 1014.2 |
| 20260901104901 | 74 | 294 | 3.0 | 6.0 | 0.00 | 0.00 | 0.01 | 89 | 1014.2 |
| 20260901103402 | 74 | 335 | 0.0 | 4.0 | 0.00 | 0.00 | 0.01 | 88 | 1013.9 |
| 20260901101901 | 72 | 263 | 3.0 | 8.0 | 0.00 | 0.00 | 0.01 | 91 | 1013.9 |
| 20260901100401 | 71 | 241 | 2.0 | 2.0 | 0.00 | 0.00 | 0.01 | 95 | 1013.5 |
| 20260901094902 | 71 | 219 | 0.0 | 0.0 | 0.00 | 0.00 | 0.01 | 96 | 1013.9 |
| 20260901093402 | 71 | 188 | 0.0 | 2.0 | 0.00 | 0.00 | 0.01 | 97 | 1013.5 |
| 20260901092402 | 71 | 232 | 0.0 | 0.0 | 0.00 | 0.00 | 0.01 | 97 | 1013.5 |
| 20260901090902 | 70 | 226 | 0.0 | 0.0 | 0.01 | 0.00 | 0.01 | 98 | 1013.5 |
| 20260901085402 | 70 | 305 | 0.0 | 0.0 | 0.01 | 0.00 | 0.01 | 98 | 1013.5 |
| 20260901084002 | 70 | 296 | 0.0 | 2.0 | 0.01 | 0.00 | 0.01 | 98 | 1013.5 |
| 20260901082502 | 70 | 304 | 0.0 | 0.0 | 0.01 | 0.00 | 0.01 | 98 | 1013.5 |
| 20260901081001 | 70 | 318 | 0.0 | 0.0 | 0.00 | 0.00 | 0.00 | 99 | 1013.5 |
| 20260901075503 | 70 | 244 | 0.0 | 0.0 | 0.00 | 0.00 | 0.00 | 99 | 1013.9 |
| 20260901073902 | 69 | 219 | 0.0 | 3.0 | 0.00 | 0.00 | 0.00 | 99 | 1013.9 |
| 20260901072403 | 69 | 187 | 0.0 | 1.0 | 0.00 | 0.00 | 0.00 | 99 | 1014.2 |
| 20260901071002 | 69 | 181 | 0.0 | 0.0 | 0.00 | 0.00 | 0.00 | 100 | 1014.2 |
| 20260901065503 | 69 | 243 | 0.0 | 0.0 | 0.00 | 0.00 | 0.00 | 100 | 1014.6 |
| 20260901064002 | 69 | 290 | 0.0 | 0.0 | 0.00 | 0.00 | 0.00 | 99 | 1014.6 |
| 20260901062902 | 69 | 259 | 0.0 | 0.0 | 0.00 | 0.00 | 0.00 | 99 | 1014.9 |
| 20260901061503 | 69 | 285 | 0.0 | 0.0 | 0.00 | 0.00 | 0.00 | 99 | 1014.9 |
| 20260901060003 | 69 | 225 | 0.0 | 0.0 | 0.00 | 0.00 | 0.00 | 100 | 1015.2 |
| 20260901055002 | 69 | 226 | 0.0 | 0.0 | 0.00 | 0.00 | 0.00 | 99 | 1015.2 |
| 20260901053501 | 69 | 220 | 0.0 | 0.0 | 0.00 | 0.00 | 0.00 | 99 | 1015.2 |
| 20260901052002 | 69 | 272 | 0.0 | 0.0 | 0.00 | 0.00 | 0.00 | 99 | 1015.6 |
| 20260901050502 | 69 | 294 | 0.0 | 0.0 | 0.00 | 0.00 | 0.00 | 99 | 1015.6 |
| 20260901045001 | 69 | 152 | 0.0 | 2.0 | 0.00 | 0.00 | 0.00 | 99 | 1015.6 |
| 20260901043402 | 69 | 229 | 0.0 | 0.0 | 0.00 | 0.00 | 0.00 | 99 | 1016.3 |
| 20260901041901 | 69 | 286 | 0.0 | 0.0 | 0.00 | 0.00 | 0.00 | 99 | 1016.3 |
| 20260901040501 | 69 | 290 | 0.0 | 0.0 | 0.41 | 0.00 | 0.00 | 99 | 1016.3 |
| 20260901035001 | 69 | 324 | 0.0 | 0.0 | 0.41 | 0.00 | 0.98 | 99 | 1016.9 |
| 20260901033903 | 69 | 178 | 0.0 | 0.0 | 0.41 | 0.00 | 0.98 | 99 | 1016.9 |
| 20260901032502 | 69 | 268 | 0.0 | 0.0 | 0.41 | 0.00 | 0.98 | 98 | 1016.9 |
| 20260901031202 | 69 | 231 | 0.0 | 0.0 | 0.00 | 0.00 | 0.56 | 98 | 1016.9 |
| 20260901023501 | 63 | 250 | 0.0 | 0.0 | 0.00 | 0.00 | 0.56 | 100 | 1016.9 |
| 20260901021902 | 63 | 352 | 0.0 | 0.0 | 0.00 | 0.00 | 0.56 | 100 | 1016.9 |
| 20260901020501 | 63 | 4 | 0.0 | 0.0 | 0.00 | 0.00 | 0.56 | 100 | 1016.9 |
| 20260901015003 | 63 | 215 | 0.0 | 0.0 | 0.00 | 0.00 | 0.56 | 100 | 1016.9 |
| 20260901013502 | 63 | 19 | 0.0 | 0.0 | 0.00 | 0.00 | 0.56 | 100 | 1016.9 |
| 20260901012003 | 63 | 357 | 0.0 | 0.0 | 0.01 | 0.00 | 0.56 | 100 | 1016.9 |
| 20260901010502 | 63 | 324 | 0.0 | 0.0 | 0.01 | 0.00 | 0.56 | 100 | 1016.9 |
| 20260901005402 | 63 | 279 | 0.0 | 0.0 | 0.01 | 0.00 | 0.56 | 100 | 1016.9 |
| 20260901004002 | 63 | 7 | 0.0 | 0.0 | 0.01 | 0.00 | 0.56 | 100 | 1016.9 |
| 20260901002502 | 63 | 310 | 0.0 | 0.0 | 0.00 | 0.00 | 0.56 | 100 | 1016.9 |
| 20260901001002 | 63 | 226 | 0.0 | 0.0 | 0.00 | 0.00 | 0.56 | 100 | 1016.9 |
| 20260831235502 | 63 | 226 | 0.0 | 3.0 | 0.00 | 0.00 | 0.56 | 100 | 1016.9 |
| 20260831234502 | 63 | 222 | 0.0 | 0.0 | 0.00 | 0.00 | 0.56 | 100 | 1016.9 |
| 20260831233003 | 63 | 270 | 0.0 | 0.0 | 0.00 | 0.00 | 0.56 | 100 | 1016.9 |
| 20260831231502 | 63 | 282 | 0.0 | 1.0 | 0.00 | 0.00 | 0.56 | 100 | 1016.9 |
| 20260831230003 | 63 | 174 | 0.0 | 0.0 | 0.00 | 0.00 | 0.56 | 100 | 1016.9 |
| 20260831224901 | 63 | 258 | 2.0 | 2.0 | 0.00 | 0.00 | 0.56 | 100 | 1016.9 |
| 20260831223401 | 63 | 185 | 0.0 | 0.0 | 0.00 | 0.00 | 0.56 | 100 | 1016.9 |
| 20260831221902 | 63 | 197 | 3.0 | 5.0 | 0.00 | 0.00 | 0.56 | 100 | 1016.9 |
| 20260831220402 | 63 | 271 | 2.0 | 5.0 | 0.00 | 0.00 | 0.56 | 100 | 1017.3 |
| 20260831215402 | 63 | 96 | 2.0 | 4.0 | 0.00 | 0.00 | 0.56 | 100 | 1017.3 |
| 20260831213904 | 63 | 273 | 0.0 | 6.0 | 0.00 | 0.00 | 0.56 | 100 | 1016.9 |
| 20260831212402 | 63 | 181 | 0.0 | 3.0 | 0.00 | 0.00 | 0.56 | 100 | 1017.3 |
| 20260831211001 | 63 | 281 | 0.0 | 4.0 | 0.00 | 0.00 | 0.56 | 100 | 1016.9 |